Date String (YYYY-MM-DD hh:mm:ss) UTC,Instrument flags,absolute air pressure of the measurement (hPa),sample flow rate (lpm),inlet stack bypass flow (lpm),air temperature of the measurement (°C),ambient temperature measured by the external sensor (°C),aerosol sample conditioner tube jacket temperature (°C),OPC LED temperature (°C),internal box temperature (°C),relative humidity of the measurement (%),span deviation,mass concentration of particles derived from Lorenz-Mie calculation of OPC scattering (μg/m³),mass concentration of particles derived from Lorenz-Mie calculation of OPC scattering (μg/m³),mass concentration of particles derived from Lorenz-Mie calculation of OPC scattering (μg/m³)
DateTimeUTC,F1_M11,P_M11,Q1_M11,Q2_M11,T1_M11,T2_M11,T3_M11,T4_M11,T5_M11,U1_M11,ZSPAN_M11,X0_M11,X2_M11,X1_M11
2024-06-17 14:00:00,SystemResetWarning,0822.4,5.00,000.00,030.7,030.1,000.0,039.0,032.4,031.6,0000.0,0015.38,0006.49,0005.35
2024-06-17 14:01:00,SystemResetWarning,0822.4,5.00,000.00,030.7,030.1,000.0,039.1,032.4,031.4,0000.0,0015.63,0006.51,0005.36
2024-06-17 14:02:00,SystemResetWarning,0822.4,5.00,000.00,030.7,030.1,000.0,039.1,032.5,031.4,0000.0,0015.52,0006.53,0005.38
2024-06-17 14:03:00,SystemResetWarning,0822.4,5.01,000.00,030.8,030.2,000.0,039.1,032.5,031.3,0000.0,0015.25,0006.54,0005.39
2024-06-17 14:04:00,SystemResetWarning,0822.4,5.00,000.00,030.8,030.2,000.0,039.1,032.5,031.2,0000.0,0015.79,0006.58,0005.41
2024-06-17 14:05:00,SystemResetWarning,0822.5,5.00,000.00,030.8,030.2,000.0,039.1,032.6,031.2,0000.3,0015.60,0006.63,0005.44
2024-06-17 14:06:00,SystemResetWarning,0822.4,5.00,000.00,030.8,030.3,000.0,039.2,032.6,031.1,0000.8,0015.27,0006.62,0005.46
2024-06-17 14:07:00,SystemResetWarning,0822.4,5.00,000.00,030.9,030.3,000.0,039.2,032.6,031.0,0001.4,0015.07,0006.59,0005.45
2024-06-17 14:08:00,SystemResetWarning,0822.4,5.00,000.00,030.9,030.3,000.0,039.2,032.6,031.0,0000.7,0014.78,0006.61,0005.45
2024-06-17 14:09:00,SystemResetWarning,0822.4,5.00,000.00,030.9,030.3,000.0,039.2,032.7,030.9,0000.4,0014.09,0006.61,0005.46
2024-06-17 14:10:00,SystemResetWarning,0822.5,5.00,000.00,030.9,030.3,000.0,039.3,032.7,031.0,0000.3,0013.84,0006.59,0005.45
2024-06-17 14:11:00,SystemResetWarning,0822.4,5.00,000.00,031.0,030.4,000.0,039.3,032.7,030.9,0000.4,0014.19,0006.61,0005.45
2024-06-17 14:12:00,SystemResetWarning,0822.4,5.00,000.00,031.0,030.4,000.0,039.3,032.7,030.8,0000.8,0013.99,0006.59,0005.45
2024-06-17 14:13:00,SystemResetWarning,0822.4,5.00,000.00,031.0,030.4,000.0,039.3,032.7,030.9,0000.5,0014.34,0006.67,0005.45
2024-06-17 14:14:00,SystemResetWarning,0822.4,5.00,000.00,031.0,030.4,000.0,039.3,032.7,030.7,0000.4,0014.76,0006.72,0005.44
2024-06-17 14:15:00,SystemResetWarning,0822.4,5.00,000.00,031.0,030.4,000.0,039.4,032.8,030.9,0000.5,0014.03,0006.67,0005.44
2024-06-17 14:16:00,SystemResetWarning,0822.4,5.00,000.00,031.1,030.4,000.0,039.4,032.8,031.0,0000.8,0013.83,0006.65,0005.41
2024-06-17 14:17:00,SystemResetWarning,0822.4,5.01,000.00,031.1,030.5,000.0,039.4,032.8,031.0,0000.5,0014.15,0006.64,0005.39
2024-06-17 14:18:00,SystemResetWarning,0822.4,5.00,000.00,031.1,030.5,000.0,039.4,032.8,030.7,0000.2,0014.77,0006.63,0005.37
2024-06-17 14:19:00,SystemResetWarning,0822.4,5.00,000.00,031.1,030.5,000.0,039.5,032.8,030.5,0000.0,0015.38,0006.65,0005.37
2024-06-17 14:20:00,SystemResetWarning,0822.4,5.00,000.00,031.1,030.5,000.0,039.5,032.8,030.5,0000.0,0016.27,0006.67,0005.37
2024-06-17 14:21:00,SystemResetWarning,0822.4,5.00,000.00,031.1,030.5,000.0,039.5,032.9,030.6,0000.0,0016.91,0006.70,0005.37
2024-06-17 14:22:00,SystemResetWarning,0822.4,5.00,000.00,031.2,030.5,000.0,039.5,032.9,030.7,0000.0,0016.23,0006.69,0005.37
2024-06-17 14:23:00,SystemResetWarning,0822.4,5.00,000.00,031.2,030.6,000.0,039.5,032.9,030.6,0000.1,0016.24,0006.68,0005.38
2024-06-17 14:24:00,SystemResetWarning,0822.3,5.00,000.00,031.2,030.6,000.0,039.5,032.9,030.6,0000.4,0016.46,0006.63,0005.37
2024-06-17 14:25:00,SystemResetWarning,0822.3,5.00,000.00,031.2,030.6,000.0,039.6,032.9,030.6,0000.6,0016.17,0006.57,0005.37
2024-06-17 14:26:00,SystemResetWarning,0822.3,5.00,000.00,031.2,030.6,000.0,039.6,032.9,030.6,0000.2,0017.24,0006.59,0005.36
2024-06-17 14:27:00,SystemResetWarning,0822.3,5.00,000.00,031.3,030.6,000.0,039.6,033.0,030.4,0000.0,0017.83,0006.59,0005.36
2024-06-17 14:28:00,SystemResetWarning,0822.2,5.00,000.00,031.3,030.6,000.0,039.6,033.0,030.4,0000.0,0018.44,0006.60,0005.37
2024-06-17 14:29:00,SystemResetWarning,0822.2,5.00,000.00,031.3,030.6,000.0,039.6,033.0,030.4,0000.0,0017.90,0006.62,0005.38
2024-06-17 14:30:00,SystemResetWarning,0822.2,5.00,000.00,031.3,030.7,000.0,039.6,033.0,030.3,-000.2,0017.44,0006.61,0005.36
2024-06-17 14:31:00,SystemResetWarning,0822.3,5.00,000.00,031.3,030.7,000.0,039.7,033.0,030.3,-000.2,0016.59,0006.57,0005.35
2024-06-17 14:32:00,SystemResetWarning,0822.2,4.99,000.00,031.3,030.7,000.0,039.7,033.0,030.4,0000.0,0016.01,0006.54,0005.35
2024-06-17 14:33:00,SystemResetWarning,0822.3,5.00,000.00,031.3,030.7,000.0,039.7,033.0,030.3,0000.0,0016.84,0006.52,0005.35
2024-06-17 14:34:00,SystemResetWarning,0822.3,5.00,000.00,031.4,030.7,000.0,039.7,033.0,030.2,0000.0,0016.99,0006.55,0005.36
2024-06-17 14:35:00,SystemResetWarning,0822.2,5.00,000.00,031.4,030.7,000.0,039.7,033.0,030.2,0000.0,0016.69,0006.57,0005.37
2024-06-17 14:36:00,SystemResetWarning,0822.2,5.00,000.00,031.4,030.7,000.0,039.7,033.1,030.2,0000.0,0016.57,0006.63,0005.38
2024-06-17 14:37:00,SystemResetWarning,0822.1,5.00,000.00,031.4,030.7,000.0,039.7,033.1,030.3,-000.0,0015.35,0006.62,0005.43
2024-06-17 14:38:00,SystemResetWarning,0822.1,5.00,000.00,031.4,030.8,000.0,039.8,033.1,030.3,0000.1,0015.10,0006.66,0005.45
2024-06-17 14:39:00,SystemResetWarning,0822.1,5.00,000.00,031.4,030.8,000.0,039.8,033.1,030.3,0000.1,0015.34,0006.70,0005.46
2024-06-17 14:40:00,SystemResetWarning,0822.0,5.00,000.00,031.4,030.8,000.0,039.8,033.1,030.5,0000.8,0016.26,0006.69,0005.47
2024-06-17 14:41:00,SystemResetWarning,0822.1,5.00,000.00,031.4,030.8,000.0,039.8,033.1,030.4,0000.9,0016.00,0006.67,0005.48
2024-06-17 14:42:00,SystemResetWarning,0822.0,5.00,000.00,031.4,030.5,000.0,039.8,032.9,030.5,0001.2,0016.31,0006.67,0005.49
2024-06-17 14:43:00,SystemResetWarning,0821.9,4.98,000.00,031.1,028.3,000.0,039.9,031.9,030.8,0000.4,0016.45,0006.64,0005.47
2024-06-17 14:44:00,SystemResetWarning,0821.8,5.01,000.00,030.6,026.2,000.0,039.8,030.9,031.7,0000.1,0016.33,0006.69,0005.47
2024-06-17 14:45:00,SystemResetWarning,0821.8,5.02,000.00,030.2,026.0,000.0,039.7,030.6,032.3,-000.4,0016.51,0006.70,0005.48
2024-06-17 14:46:00,SystemResetWarning,0821.8,5.00,000.00,030.0,026.4,000.0,039.5,030.8,032.8,-000.1,0016.81,0006.72,0005.47
2024-06-17 14:47:00,SystemResetWarning,0821.9,4.99,000.00,030.0,027.0,000.0,039.3,031.1,033.3,0000.4,0017.23,0006.64,0005.45
2024-06-17 14:48:00,SystemResetWarning,0821.8,5.01,000.00,030.0,027.5,000.0,039.2,031.3,033.4,0000.5,0017.31,0006.65,0005.44
2024-06-17 14:49:00,SystemResetWarning,0821.9,5.00,000.00,030.0,027.9,000.0,039.1,031.4,033.3,0000.8,0017.34,0006.65,0005.43
2024-06-17 14:50:00,SystemResetWarning,0822.0,4.99,000.00,030.0,028.3,000.0,039.0,031.5,033.4,0000.0,0016.87,0006.64,0005.44
2024-06-17 14:51:00,SystemResetWarning,0822.0,5.00,000.00,030.1,028.6,000.0,038.9,031.7,033.5,0000.0,0016.28,0006.64,0005.44
2024-06-17 14:52:00,SystemResetWarning,0822.0,5.00,000.00,030.1,028.8,000.0,038.9,031.7,033.3,0000.0,0016.47,0006.62,0005.44
2024-06-17 14:53:00,SystemResetWarning,0822.0,5.00,000.00,030.1,029.0,000.0,038.9,031.8,033.0,0000.0,0016.31,0006.62,0005.44
2024-06-17 14:54:00,SystemResetWarning,0821.9,5.00,000.00,030.2,029.2,000.0,038.9,031.9,033.1,0000.0,0016.13,0006.64,0005.45
2024-06-17 14:55:00,SystemResetWarning,0821.8,5.00,000.00,030.2,029.3,000.0,038.9,032.0,032.8,0000.0,0016.20,0006.62,0005.46
2024-06-17 14:56:00,SystemResetWarning,0821.8,4.99,000.00,030.3,029.4,000.0,038.8,032.0,032.9,0000.0,0016.52,0006.64,0005.46
2024-06-17 14:57:00,SystemResetWarning,0821.8,5.00,000.00,030.3,029.5,000.0,038.8,032.1,032.9,0000.0,0016.87,0006.63,0005.46
2024-06-17 14:58:00,SystemResetWarning,0821.8,5.00,000.00,030.3,029.6,000.0,038.8,032.1,032.7,0000.0,0016.29,0006.63,0005.48
2024-06-17 14:59:00,SystemResetWarning,0821.8,4.99,000.00,030.4,029.7,000.0,038.8,032.1,032.6,0000.0,0016.22,0006.59,0005.47
